Torna al catalogo

STARLINK-30606

AttivoComunicazioniVLEO
NORAD 58109·PAYLOAD·🇺🇸 United States

Lanciato Oct 21, 2023 da Vandenberg Space Force Base

Loading…

Prossimi Passaggi (prossime 24 ore)

TLE

AggiornatoSource: CelesTrak SupGP

Epoca: Sep 15, 2026, 02:59 UTC

1 58109C 23161N   26258.12479167  .00065250  00000+0  19277-2 0  2589
2 58109  53.1603   2.5579 0001107  81.4211  83.7928 15.34360957    18

Traccia STARLINK-30606 in tempo reale con AllMySat

Download on the App Store